Humidity-temperature Sensor

Selected Measurement Type: Relative Humidity

 
Relative Humidity [%]     6 entries per hour
Showing data from 7/3/2020 (00:00:00 Z) to 7/2/2020 (00:01:00 Z)
Previous Next [ Day | 3-Days | 7-Days ]
First Last
Prev [ Day | 3-Days | 7-Days ] Next
First Last

Start Time:     :
End Time:     :     
Time (in GMT) :00 :50 :40 :30 :20 :10
Previous Next [ Day | 3-Days | 7-Days ]
First Last
Prev [ Day | 3-Days | 7-Days ] Next
First Last


123 => good data
MM => data is determined as missing
-- => data not received/configured
Back to Top Back to Top
7/3/2020 00:00 to 23:10 84.02 83.07 81.06 80.77 79.25 78.04
7/2/2020 23:00 to 22:10 78.90 79.31 80.01 80.57 80.69 80.55
7/2/2020 22:00 to 21:10 80.83 82.37 79.23 78.92 79.62 81.26
7/2/2020 21:00 to 20:10 81.51 81.98 81.59 80.24 79.37 79.79
7/2/2020 20:00 to 19:10 81.18 81.02 80.38 82.09 81.76 82.42
7/2/2020 19:00 to 18:10 81.29 81.63 82.97 85.79 91.37 84.29
7/2/2020 18:00 to 17:10 81.35 80.01 81.61 83.36 80.57 80.81
7/2/2020 17:00 to 16:10 81.35 83.50 81.63 82.89 83.09 81.98
7/2/2020 16:00 to 15:10 80.36 80.09 80.67 81.14 81.90 80.94
7/2/2020 15:00 to 14:10 81.24 81.51 81.96 81.90 82.68 82.07
7/2/2020 14:00 to 13:10 80.83 79.91 79.52 81.10 80.94 80.83
7/2/2020 13:00 to 12:10 79.81 83.05 83.61 83.34 84.82 84.72
7/2/2020 12:00 to 11:10 83.69 81.66 82.74 81.53 82.79 80.32
7/2/2020 11:00 to 10:10 82.44 82.87 82.79 82.27 84.00 84.20
7/2/2020 10:00 to 9:10 81.33 79.60 79.56 81.16 81.88 80.92
7/2/2020 09:00 to 8:10 80.03 79.74 77.44 77.98 79.81 79.70
7/2/2020 08:00 to 7:10 79.66 79.05 81.20 80.83 81.74 81.74
7/2/2020 07:00 to 6:10 81.57 80.38 81.14 80.92 79.46 79.21
7/2/2020 06:00 to 5:10 77.57 79.79 78.12 79.13 80.34 80.65
7/2/2020 05:00 to 4:10 79.62 80.40 78.35 79.91 81.18 80.09
7/2/2020 04:00 to 3:10 80.11 79.85 79.85 79.54 79.44 79.56
7/2/2020 03:00 to 2:10 80.73 81.00 81.06 80.57 81.98 81.43
7/2/2020 02:00 to 1:10 81.78 81.94 81.78 82.23 82.31 81.55
7/2/2020 01:00 to 0:10 80.63 84.66 84.18 83.65 82.00 81.74